Wetterdaten: Dienstag, 03.11.2015
Datum Zeit Auen-Temp. Temp gefhlt Luftfeuchte Luftdruck Regen Wind Richtung Richtung Taupunkt Windben
03.11.2015 00:00 0,2 C -0,2 C 83 % 1023,1 hPa 0,0 mm 1,0 km/h (0 Bft) O 90 -2,3 C 2,8 km/h (1 Bft)
03.11.2015 00:05 0,0 C -0,3 C 83 % 1023,1 hPa 0,0 mm 0,3 km/h (0 Bft) W-NW 292 -2,5 C 0,0 km/h (0 Bft)
03.11.2015 00:10 0,4 C 0,0 C 83 % 1023,1 hPa 0,0 mm 0,3 km/h (0 Bft) NO 45 -2,1 C 0,0 km/h (0 Bft)
03.11.2015 00:15 0,4 C -0,1 C 83 % 1023,1 hPa 0,0 mm 0,0 km/h (0 Bft) W-NW 292 -2,1 C 0,0 km/h (0 Bft)
03.11.2015 00:20 0,5 C 0,1 C 82 % 1023,1 hPa 0,0 mm 0,3 km/h (0 Bft) W 270 -2,2 C 0,0 km/h (0 Bft)
03.11.2015 00:25 0,3 C 0,1 C 79 % 1023,1 hPa 0,0 mm 1,6 km/h (1 Bft) W-NW 292 -2,9 C 6,7 km/h (2 Bft)
03.11.2015 00:30 -0,2 C -0,1 C 79 % 1022,9 hPa 0,0 mm 1,8 km/h (1 Bft) W 270 -3,4 C 9,6 km/h (2 Bft)
03.11.2015 00:35 -0,8 C -0,5 C 79 % 1022,9 hPa 0,0 mm 0,8 km/h (0 Bft) N-NW 337 -4,0 C 0,0 km/h (0 Bft)
03.11.2015 00:40 -0,6 C -0,7 C 79 % 1022,9 hPa 0,0 mm 0,0 km/h (0 Bft) N-NW 337 -3,8 C 0,0 km/h (0 Bft)
03.11.2015 00:45 0,3 C 0,2 C 77 % 1022,9 hPa 0,0 mm 0,3 km/h (0 Bft) SO 135 -3,2 C 0,0 km/h (0 Bft)
03.11.2015 00:50 -0,1 C -0,1 C 78 % 1022,8 hPa 0,0 mm 1,3 km/h (1 Bft) NW 315 -3,5 C 0,0 km/h (0 Bft)
03.11.2015 00:55 0,0 C -0,1 C 77 % 1022,8 hPa 0,0 mm 0,8 km/h (0 Bft) O-SO 112 -3,5 C 0,0 km/h (0 Bft)
03.11.2015 01:00 0,2 C 0,1 C 77 % 1022,8 hPa 0,0 mm 0,5 km/h (0 Bft) SO 135 -3,3 C 0,0 km/h (0 Bft)
03.11.2015 01:05 0,4 C 0,2 C 78 % 1022,8 hPa 0,0 mm 0,8 km/h (0 Bft) SW 225 -3,0 C 0,0 km/h (0 Bft)
03.11.2015 01:10 0,1 C 0,0 C 77 % 1022,4 hPa 0,0 mm 1,0 km/h (0 Bft) NW 315 -3,4 C 0,0 km/h (0 Bft)
03.11.2015 01:15 -0,5 C -0,5 C 77 % 1022,4 hPa 0,0 mm 0,0 km/h (0 Bft) NW 315 -4,0 C 0,0 km/h (0 Bft)
03.11.2015 01:20 -0,6 C -0,7 C 77 % 1022,4 hPa 0,0 mm 0,0 km/h (0 Bft) NW 315 -4,1 C 0,0 km/h (0 Bft)
03.11.2015 01:25 -0,5 C -0,8 C 78 % 1022,4 hPa 0,0 mm 0,0 km/h (0 Bft) NW 315 -3,9 C 0,0 km/h (0 Bft)
03.11.2015 01:30 -0,4 C -0,7 C 78 % 1022,5 hPa 0,0 mm 0,0 km/h (0 Bft) NW 315 -3,8 C 0,0 km/h (0 Bft)
03.11.2015 01:35 0,0 C -0,3 C 78 % 1022,5 hPa 0,0 mm 0,3 km/h (0 Bft) SO 135 -3,4 C 2,6 km/h (1 Bft)
03.11.2015 01:40 -0,2 C -0,3 C 78 % 1022,5 hPa 0,0 mm 0,3 km/h (0 Bft) O-SO 112 -3,6 C 0,0 km/h (0 Bft)
03.11.2015 01:45 -0,9 C -0,7 C 78 % 1022,5 hPa 0,0 mm 0,0 km/h (0 Bft) NW 315 -4,2 C 0,0 km/h (0 Bft)
03.11.2015 01:50 -0,8 C -0,9 C 78 % 1022,5 hPa 0,0 mm 0,0 km/h (0 Bft) NW 315 -4,1 C 0,0 km/h (0 Bft)
03.11.2015 01:55 0,8 C 0,8 C 76 % 1022,5 hPa 0,0 mm 0,5 km/h (0 Bft) S 180 -2,9 C 9,3 km/h (2 Bft)
03.11.2015 02:00 0,7 C 0,6 C 76 % 1022,5 hPa 0,0 mm 1,6 km/h (1 Bft) W-SW 247 -3,0 C 0,0 km/h (0 Bft)
03.11.2015 02:04 0,0 C 0,0 C 76 % 1022,5 hPa 0,0 mm 0,3 km/h (0 Bft) NW 315 -3,7 C 0,0 km/h (0 Bft)
03.11.2015 02:05 0,0 C 0,0 C 76 % 1022,5 hPa 0,0 mm 0,3 km/h (0 Bft) NW 315 -3,7 C 0,0 km/h (0 Bft)
03.11.2015 02:10 -0,3 C -0,2 C 76 % 1022,3 hPa 0,0 mm 0,0 km/h (0 Bft) O-NO 67 -4,0 C 0,0 km/h (0 Bft)
03.11.2015 02:15 -0,3 C -0,4 C 76 % 1022,3 hPa 0,0 mm 0,0 km/h (0 Bft) O-NO 67 -4,0 C 0,0 km/h (0 Bft)
03.11.2015 02:20 0,0 C -0,2 C 77 % 1022,3 hPa 0,0 mm 0,0 km/h (0 Bft) O-NO 67 -3,5 C 0,0 km/h (0 Bft)
03.11.2015 02:25 0,4 C 0,1 C 77 % 1022,3 hPa 0,0 mm 0,0 km/h (0 Bft) O-NO 67 -3,1 C 0,0 km/h (0 Bft)
03.11.2015 02:30 0,1 C -0,1 C 76 % 1021,9 hPa 0,0 mm 0,0 km/h (0 Bft) NO 45 -3,6 C 0,0 km/h (0 Bft)
03.11.2015 02:35 -0,2 C -0,3 C 76 % 1021,9 hPa 0,0 mm 0,0 km/h (0 Bft) NW 315 -3,9 C 0,0 km/h (0 Bft)
03.11.2015 02:40 -0,5 C -0,5 C 76 % 1021,9 hPa 0,0 mm 0,0 km/h (0 Bft) NW 315 -4,2 C 0,0 km/h (0 Bft)
03.11.2015 02:45 -0,4 C -0,6 C 77 % 1021,9 hPa 0,0 mm 0,0 km/h (0 Bft) O-SO 112 -3,9 C 0,0 km/h (0 Bft)
03.11.2015 02:50 -0,6 C -0,7 C 77 % 1021,6 hPa 0,0 mm 0,0 km/h (0 Bft) O-NO 67 -4,1 C 0,0 km/h (0 Bft)
03.11.2015 02:55 -0,8 C -0,9 C 77 % 1021,6 hPa 0,0 mm 0,0 km/h (0 Bft) O-NO 67 -4,3 C 0,0 km/h (0 Bft)
03.11.2015 03:00 -0,9 C -1,0 C 77 % 1021,6 hPa 0,0 mm 0,0 km/h (0 Bft) NO 45 -4,4 C 0,0 km/h (0 Bft)
03.11.2015 03:05 0,2 C 0,3 C 76 % 1021,6 hPa 0,0 mm 0,8 km/h (0 Bft) O-SO 112 -3,5 C 2,8 km/h (1 Bft)
03.11.2015 03:10 0,5 C 0,4 C 76 % 1021,5 hPa 0,0 mm 0,8 km/h (0 Bft) S 180 -3,2 C 0,0 km/h (0 Bft)
03.11.2015 03:15 0,2 C 0,2 C 76 % 1021,5 hPa 0,0 mm 0,8 km/h (0 Bft) W-SW 247 -3,5 C 0,0 km/h (0 Bft)
03.11.2015 03:20 -0,2 C 0,2 C 76 % 1021,5 hPa 0,0 mm 0,8 km/h (0 Bft) NW 315 -3,9 C 0,0 km/h (0 Bft)
03.11.2015 03:25 -0,3 C -0,3 C 76 % 1021,5 hPa 0,0 mm 0,8 km/h (0 Bft) W-SW 247 -4,0 C 0,0 km/h (0 Bft)
03.11.2015 03:30 0,3 C 0,7 C 75 % 1021,5 hPa 0,0 mm 0,0 km/h (0 Bft) SO 135 -3,6 C 0,0 km/h (0 Bft)
03.11.2015 03:35 1,2 C 1,2 C 75 % 1021,5 hPa 0,0 mm 0,5 km/h (0 Bft) W-NW 292 -2,7 C 3,4 km/h (1 Bft)
03.11.2015 03:40 0,4 C 1,0 C 74 % 1021,5 hPa 0,0 mm 0,8 km/h (0 Bft) N-NO 22 -3,7 C 0,0 km/h (0 Bft)
03.11.2015 03:45 1,1 C 1,4 C 75 % 1021,5 hPa 0,0 mm 1,3 km/h (1 Bft) S 180 -2,8 C 3,1 km/h (1 Bft)
03.11.2015 03:50 1,9 C 1,6 C 74 % 1021,6 hPa 0,0 mm 1,3 km/h (1 Bft) S 180 -2,2 C 3,1 km/h (1 Bft)
03.11.2015 03:55 0,2 C 1,6 C 73 % 1021,6 hPa 0,0 mm 0,5 km/h (0 Bft) S-SO 157 -4,1 C 0,0 km/h (0 Bft)
03.11.2015 04:00 0,0 C 1,4 C 73 % 1021,6 hPa 0,0 mm 0,3 km/h (0 Bft) NW 315 -4,2 C 3,1 km/h (1 Bft)
03.11.2015 04:05 0,3 C 1,5 C 73 % 1021,6 hPa 0,0 mm 0,3 km/h (0 Bft) SW 225 -4,0 C 0,0 km/h (0 Bft)
03.11.2015 04:10 0,1 C 1,4 C 73 % 1021,6 hPa 0,0 mm 0,0 km/h (0 Bft) NW 315 -4,2 C 0,0 km/h (0 Bft)
03.11.2015 04:15 0,0 C 1,1 C 74 % 1021,6 hPa 0,0 mm 0,3 km/h (0 Bft) S 180 -4,1 C 0,0 km/h (0 Bft)
03.11.2015 04:20 -0,2 C 0,8 C 74 % 1021,6 hPa 0,0 mm 0,3 km/h (0 Bft) N-NW 337 -4,3 C 0,0 km/h (0 Bft)
03.11.2015 04:25 0,1 C 0,6 C 74 % 1021,6 hPa 0,0 mm 0,3 km/h (0 Bft) N-NW 337 -4,0 C 0,0 km/h (0 Bft)
03.11.2015 04:30 0,1 C 0,3 C 75 % 1021,6 hPa 0,0 mm 0,0 km/h (0 Bft) NW 315 -3,8 C 0,0 km/h (0 Bft)
03.11.2015 04:35 0,4 C 0,4 C 75 % 1021,6 hPa 0,0 mm 0,0 km/h (0 Bft) NW 315 -3,5 C 0,0 km/h (0 Bft)
03.11.2015 04:40 0,3 C 0,3 C 75 % 1021,6 hPa 0,0 mm 0,0 km/h (0 Bft) NW 315 -3,6 C 0,0 km/h (0 Bft)
03.11.2015 04:45 0,2 C 0,1 C 75 % 1021,6 hPa 0,0 mm 0,0 km/h (0 Bft) W-SW 247 -3,7 C 0,0 km/h (0 Bft)
03.11.2015 04:50 0,2 C 0,1 C 75 % 1021,2 hPa 0,0 mm 0,0 km/h (0 Bft) W-SW 247 -3,7 C 0,0 km/h (0 Bft)
03.11.2015 04:55 0,3 C 0,4 C 75 % 1021,2 hPa 0,0 mm 0,0 km/h (0 Bft) SW 225 -3,6 C 2,6 km/h (1 Bft)
03.11.2015 05:00 0,2 C 0,6 C 75 % 1021,2 hPa 0,0 mm 0,0 km/h (0 Bft) O 90 -3,7 C 0,0 km/h (0 Bft)
03.11.2015 05:05 0,1 C 0,1 C 75 % 1021,2 hPa 0,0 mm 0,3 km/h (0 Bft) S-SO 157 -3,8 C 0,0 km/h (0 Bft)
03.11.2015 05:10 0,0 C 0,4 C 75 % 1021,2 hPa 0,0 mm 0,5 km/h (0 Bft) NO 45 -3,9 C 0,0 km/h (0 Bft)
03.11.2015 05:15 0,3 C 0,5 C 74 % 1021,2 hPa 0,0 mm 0,3 km/h (0 Bft) S-SO 157 -3,8 C 0,0 km/h (0 Bft)
03.11.2015 05:20 0,4 C 0,4 C 75 % 1021,2 hPa 0,0 mm 0,0 km/h (0 Bft) NW 315 -3,5 C 0,0 km/h (0 Bft)
03.11.2015 05:25 0,0 C 0,0 C 75 % 1021,2 hPa 0,0 mm 0,0 km/h (0 Bft) O-SO 112 -3,9 C 0,0 km/h (0 Bft)
03.11.2015 05:30 -0,1 C -0,2 C 75 % 1021,2 hPa 0,0 mm 0,0 km/h (0 Bft) O-NO 67 -4,0 C 0,0 km/h (0 Bft)
03.11.2015 05:35 -0,2 C -0,2 C 75 % 1021,2 hPa 0,0 mm 0,0 km/h (0 Bft) NO 45 -4,1 C 0,0 km/h (0 Bft)
03.11.2015 05:40 0,1 C 0,1 C 74 % 1021,2 hPa 0,0 mm 0,0 km/h (0 Bft) O 90 -4,0 C 0,0 km/h (0 Bft)
03.11.2015 05:45 0,7 C 0,4 C 76 % 1021,2 hPa 0,0 mm 0,0 km/h (0 Bft) NW 315 -3,0 C 0,0 km/h (0 Bft)
03.11.2015 05:50 1,2 C 0,8 C 75 % 1020,9 hPa 0,0 mm 0,3 km/h (0 Bft) W 270 -2,7 C 3,4 km/h (1 Bft)
03.11.2015 05:55 0,2 C 0,6 C 74 % 1020,9 hPa 0,0 mm 0,3 km/h (0 Bft) W-SW 247 -3,9 C 0,0 km/h (0 Bft)
03.11.2015 06:00 -0,4 C 0,3 C 74 % 1020,9 hPa 0,0 mm 0,3 km/h (0 Bft) S-SO 157 -4,5 C 0,0 km/h (0 Bft)
03.11.2015 06:05 -0,5 C 0,3 C 75 % 1020,9 hPa 0,0 mm 0,3 km/h (0 Bft) S-SO 157 -4,4 C 0,0 km/h (0 Bft)
03.11.2015 06:10 -0,3 C -0,3 C 75 % 1020,9 hPa 0,0 mm 0,0 km/h (0 Bft) O 90 -4,2 C 0,0 km/h (0 Bft)
03.11.2015 06:15 -0,6 C -0,6 C 75 % 1020,9 hPa 0,0 mm 0,0 km/h (0 Bft) NW 315 -4,5 C 0,0 km/h (0 Bft)
03.11.2015 06:20 -0,4 C -0,5 C 76 % 1020,9 hPa 0,0 mm 0,8 km/h (0 Bft) W 270 -4,1 C 4,1 km/h (1 Bft)
03.11.2015 06:25 0,6 C 0,1 C 76 % 1020,9 hPa 0,0 mm 0,8 km/h (0 Bft) S-SO 157 -3,1 C 0,0 km/h (0 Bft)
03.11.2015 06:30 0,2 C 0,0 C 76 % 1020,6 hPa 0,0 mm 0,3 km/h (0 Bft) O-SO 112 -3,5 C 0,0 km/h (0 Bft)
03.11.2015 06:35 -0,3 C -0,3 C 75 % 1020,6 hPa 0,0 mm 0,0 km/h (0 Bft) O-NO 67 -4,2 C 0,0 km/h (0 Bft)
03.11.2015 06:40 -0,2 C -0,2 C 76 % 1020,6 hPa 0,0 mm 0,0 km/h (0 Bft) O-NO 67 -3,9 C 0,0 km/h (0 Bft)
03.11.2015 06:45 -0,3 C -0,1 C 75 % 1020,6 hPa 0,0 mm 0,0 km/h (0 Bft) NW 315 -4,2 C 0,0 km/h (0 Bft)
03.11.2015 06:50 -0,5 C -0,1 C 75 % 1020,6 hPa 0,0 mm 0,5 km/h (0 Bft) W 270 -4,4 C 2,6 km/h (1 Bft)
03.11.2015 06:55 -0,4 C -0,5 C 76 % 1020,6 hPa 0,0 mm 0,8 km/h (0 Bft) O-SO 112 -4,1 C 2,6 km/h (1 Bft)
03.11.2015 07:00 -0,6 C -0,6 C 76 % 1020,6 hPa 0,0 mm 0,5 km/h (0 Bft) NW 315 -4,3 C 0,0 km/h (0 Bft)
03.11.2015 07:05 -0,6 C -0,6 C 76 % 1020,6 hPa 0,0 mm 0,5 km/h (0 Bft) W-SW 247 -4,3 C 0,0 km/h (0 Bft)
03.11.2015 07:10 0,5 C 0,3 C 75 % 1020,8 hPa 0,0 mm 0,5 km/h (0 Bft) W-SW 247 -3,4 C 3,6 km/h (1 Bft)
03.11.2015 07:15 1,2 C 0,9 C 74 % 1020,8 hPa 0,0 mm 0,8 km/h (0 Bft) S 180 -2,9 C 0,0 km/h (0 Bft)
03.11.2015 07:20 0,8 C 0,6 C 74 % 1020,8 hPa 0,0 mm 0,8 km/h (0 Bft) S 180 -3,3 C 0,0 km/h (0 Bft)
03.11.2015 07:25 0,0 C 2,1 C 73 % 1020,8 hPa 0,0 mm 0,8 km/h (0 Bft) W 270 -4,2 C 0,0 km/h (0 Bft)
03.11.2015 07:30 -0,2 C 2,1 C 73 % 1020,7 hPa 0,0 mm 0,8 km/h (0 Bft) W 270 -4,4 C 0,0 km/h (0 Bft)
03.11.2015 07:35 0,3 C 2,1 C 74 % 1020,7 hPa 0,0 mm 0,8 km/h (0 Bft) W 270 -3,8 C 0,0 km/h (0 Bft)
03.11.2015 07:40 0,4 C 2,1 C 75 % 1020,7 hPa 0,0 mm 0,8 km/h (0 Bft) W 270 -3,5 C 0,0 km/h (0 Bft)
03.11.2015 07:45 0,0 C 2,1 C 74 % 1020,7 hPa 0,0 mm 0,0 km/h (0 Bft) W 270 -4,1 C 0,0 km/h (0 Bft)
03.11.2015 07:50 -0,3 C 2,1 C 74 % 1020,6 hPa 0,0 mm 0,0 km/h (0 Bft) W 270 -4,4 C 0,0 km/h (0 Bft)
03.11.2015 07:55 -0,1 C 2,1 C 75 % 1020,6 hPa 0,0 mm 0,0 km/h (0 Bft) W 270 -4,0 C 0,0 km/h (0 Bft)
03.11.2015 08:00 -0,2 C 2,1 C 75 % 1020,6 hPa 0,0 mm 0,0 km/h (0 Bft) W 270 -4,1 C 0,0 km/h (0 Bft)
03.11.2015 08:04 0,2 C 0,1 C 75 % 1020,6 hPa 0,0 mm 0,0 km/h (0 Bft) W 270 -3,7 C 0,0 km/h (0 Bft)
03.11.2015 08:05 0,2 C 0,1 C 75 % 1020,6 hPa 0,0 mm 0,0 km/h (0 Bft) W 270 -3,7 C 0,0 km/h (0 Bft)
03.11.2015 08:10 -0,1 C 0,0 C 75 % 1020,8 hPa 0,0 mm 0,0 km/h (0 Bft) W 270 -4,0 C 0,0 km/h (0 Bft)
03.11.2015 08:15 0,4 C 0,5 C 74 % 1020,8 hPa 0,0 mm 0,0 km/h (0 Bft) W 270 -3,7 C 0,0 km/h (0 Bft)
03.11.2015 08:20 2,0 C 2,3 C 74 % 1020,8 hPa 0,0 mm 0,0 km/h (0 Bft) W 270 -2,1 C 0,0 km/h (0 Bft)
03.11.2015 08:25 4,2 C 2,8 C 67 % 1020,8 hPa 0,0 mm 0,0 km/h (0 Bft) W 270 -1,4 C 0,0 km/h (0 Bft)
03.11.2015 08:30 2,5 C 1,7 C 67 % 1020,9 hPa 0,0 mm 0,0 km/h (0 Bft) W 270 -3,0 C 0,0 km/h (0 Bft)
03.11.2015 08:35 2,2 C 1,5 C 68 % 1020,9 hPa 0,0 mm 0,0 km/h (0 Bft) W 270 -3,1 C 0,0 km/h (0 Bft)
03.11.2015 08:40 2,2 C 1,5 C 68 % 1020,9 hPa 0,0 mm 0,0 km/h (0 Bft) W 270 -3,1 C 0,0 km/h (0 Bft)
03.11.2015 08:45 2,9 C 1,9 C 69 % 1020,9 hPa 0,0 mm 0,0 km/h (0 Bft) W 270 -2,2 C 0,0 km/h (0 Bft)
03.11.2015 08:50 2,6 C 1,7 C 68 % 1020,6 hPa 0,0 mm 0,0 km/h (0 Bft) W 270 -2,7 C 0,0 km/h (0 Bft)
03.11.2015 08:55 3,3 C 2,2 C 68 % 1020,6 hPa 0,0 mm 0,0 km/h (0 Bft) W 270 -2,0 C 0,0 km/h (0 Bft)
03.11.2015 09:00 3,0 C 2,0 C 68 % 1020,6 hPa 0,0 mm 0,0 km/h (0 Bft) W 270 -2,3 C 0,0 km/h (0 Bft)
03.11.2015 09:05 3,5 C 2,3 C 68 % 1020,6 hPa 0,0 mm 0,0 km/h (0 Bft) W 270 -1,8 C 0,0 km/h (0 Bft)
03.11.2015 09:10 4,1 C 2,7 C 68 % 1020,6 hPa 0,0 mm 0,0 km/h (0 Bft) W 270 -1,3 C 0,0 km/h (0 Bft)
03.11.2015 09:15 4,5 C 3,1 C 67 % 1020,6 hPa 0,0 mm 0,0 km/h (0 Bft) W 270 -1,1 C 0,0 km/h (0 Bft)
03.11.2015 09:20 4,7 C 3,1 C 67 % 1020,6 hPa 0,0 mm 0,0 km/h (0 Bft) W 270 -0,9 C 0,0 km/h (0 Bft)
03.11.2015 09:25 5,7 C 3,9 C 67 % 1020,6 hPa 0,0 mm 0,0 km/h (0 Bft) W 270 0,1 C 0,0 km/h (0 Bft)
03.11.2015 09:30 5,5 C 3,7 C 66 % 1020,4 hPa 0,0 mm 0,0 km/h (0 Bft) W 270 -0,3 C 0,0 km/h (0 Bft)
03.11.2015 09:35 6,2 C 4,1 C 66 % 1020,4 hPa 0,0 mm 0,0 km/h (0 Bft) W 270 0,3 C 0,0 km/h (0 Bft)
03.11.2015 09:40 6,7 C 4,5 C 66 % 1020,4 hPa 0,0 mm 0,0 km/h (0 Bft) W 270 0,8 C 0,0 km/h (0 Bft)
03.11.2015 09:45 7,4 C 5,1 C 65 % 1020,4 hPa 0,0 mm 0,0 km/h (0 Bft) W 270 1,3 C 0,0 km/h (0 Bft)
03.11.2015 09:50 7,3 C 4,9 C 64 % 1020,4 hPa 0,0 mm 0,0 km/h (0 Bft) W 270 1,0 C 0,0 km/h (0 Bft)
03.11.2015 09:55 8,8 C 5,9 C 63 % 1020,4 hPa 0,0 mm 0,0 km/h (0 Bft) W 270 2,2 C 0,0 km/h (0 Bft)
03.11.2015 10:00 8,8 C 5,9 C 61 % 1020,4 hPa 0,0 mm 0,0 km/h (0 Bft) W 270 1,7 C 0,0 km/h (0 Bft)
03.11.2015 10:05 8,5 C 5,7 C 61 % 1020,4 hPa 0,0 mm 0,0 km/h (0 Bft) W 270 1,4 C 0,0 km/h (0 Bft)
03.11.2015 10:10 9,0 C 6,0 C 60 % 1020,3 hPa 0,0 mm 0,0 km/h (0 Bft) W 270 1,7 C 0,0 km/h (0 Bft)
03.11.2015 10:15 9,7 C 6,5 C 59 % 1020,3 hPa 0,0 mm 0,0 km/h (0 Bft) W 270 2,1 C 0,0 km/h (0 Bft)
03.11.2015 10:20 9,5 C 6,3 C 58 % 1020,3 hPa 0,0 mm 0,0 km/h (0 Bft) W 270 1,7 C 0,0 km/h (0 Bft)
03.11.2015 10:25 10,9 C 7,3 C 52 % 1020,3 hPa 0,0 mm 0,0 km/h (0 Bft) W 270 1,4 C 0,0 km/h (0 Bft)
03.11.2015 10:30 11,0 C 7,3 C 52 % 1020,1 hPa 0,0 mm 0,0 km/h (0 Bft) W 270 1,5 C 0,0 km/h (0 Bft)
03.11.2015 10:35 11,6 C 7,7 C 46 % 1020,1 hPa 0,0 mm 0,0 km/h (0 Bft) W 270 0,4 C 0,0 km/h (0 Bft)
03.11.2015 10:40 12,0 C 8,0 C 44 % 1020,1 hPa 0,0 mm 0,0 km/h (0 Bft) W 270 0,1 C 0,0 km/h (0 Bft)
03.11.2015 10:45 11,9 C 7,9 C 43 % 1020,1 hPa 0,0 mm 0,0 km/h (0 Bft) W 270 -0,3 C 0,0 km/h (0 Bft)
03.11.2015 10:50 12,1 C 8,1 C 43 % 1020,1 hPa 0,0 mm 0,0 km/h (0 Bft) W 270 -0,1 C 0,0 km/h (0 Bft)
03.11.2015 10:55 13,0 C 8,7 C 42 % 1020,1 hPa 0,0 mm 0,0 km/h (0 Bft) W 270 0,4 C 0,0 km/h (0 Bft)
03.11.2015 11:00 12,9 C 8,6 C 42 % 1020,1 hPa 0,0 mm 0,0 km/h (0 Bft) W 270 0,3 C 0,0 km/h (0 Bft)
03.11.2015 11:05 13,0 C 8,7 C 45 % 1020,1 hPa 0,0 mm 0,0 km/h (0 Bft) W 270 1,4 C 0,0 km/h (0 Bft)
03.11.2015 11:10 13,1 C 8,7 C 44 % 1019,8 hPa 0,0 mm 0,0 km/h (0 Bft) W 270 1,1 C 0,0 km/h (0 Bft)
03.11.2015 11:15 13,6 C 9,1 C 44 % 1019,8 hPa 0,0 mm 0,0 km/h (0 Bft) W 270 1,6 C 0,0 km/h (0 Bft)
03.11.2015 11:20 13,5 C 9,0 C 43 % 1019,8 hPa 0,0 mm 0,0 km/h (0 Bft) W 270 1,2 C 0,0 km/h (0 Bft)
03.11.2015 11:25 13,4 C 8,9 C 44 % 1019,8 hPa 0,0 mm 0,0 km/h (0 Bft) W 270 1,4 C 0,0 km/h (0 Bft)
03.11.2015 11:30 13,5 C 9,0 C 43 % 1019,2 hPa 0,0 mm 0,0 km/h (0 Bft) W 270 1,2 C 0,0 km/h (0 Bft)
03.11.2015 11:35 13,7 C 9,1 C 42 % 1019,2 hPa 0,0 mm 0,0 km/h (0 Bft) W 270 1,0 C 0,0 km/h (0 Bft)
03.11.2015 11:40 14,1 C 9,4 C 43 % 1019,2 hPa 0,0 mm 0,0 km/h (0 Bft) W 270 1,7 C 0,0 km/h (0 Bft)
03.11.2015 11:45 13,5 C 9,0 C 44 % 1019,2 hPa 0,0 mm 0,0 km/h (0 Bft) W 270 1,5 C 0,0 km/h (0 Bft)
03.11.2015 11:50 13,5 C 9,0 C 45 % 1019,4 hPa 0,0 mm 0,0 km/h (0 Bft) W 270 1,8 C 0,0 km/h (0 Bft)
03.11.2015 11:55 13,7 C 9,1 C 45 % 1019,4 hPa 0,0 mm 0,0 km/h (0 Bft) W 270 2,0 C 0,0 km/h (0 Bft)
03.11.2015 12:00 14,0 C 9,3 C 44 % 1019,4 hPa 0,0 mm 0,0 km/h (0 Bft) W 270 1,9 C 0,0 km/h (0 Bft)
03.11.2015 12:05 14,7 C 9,8 C 44 % 1019,4 hPa 0,0 mm 0,0 km/h (0 Bft) W 270 2,6 C 0,0 km/h (0 Bft)
03.11.2015 12:10 14,7 C 9,8 C 43 % 1018,8 hPa 0,0 mm 0,0 km/h (0 Bft) W 270 2,3 C 0,0 km/h (0 Bft)
03.11.2015 12:15 14,7 C 9,8 C 45 % 1018,8 hPa 0,0 mm 0,0 km/h (0 Bft) W 270 2,9 C 0,0 km/h (0 Bft)
03.11.2015 12:20 14,7 C 9,8 C 45 % 1018,8 hPa 0,0 mm 0,0 km/h (0 Bft) W 270 2,9 C 0,0 km/h (0 Bft)
03.11.2015 12:25 15,0 C 10,0 C 46 % 1018,8 hPa 0,0 mm 0,0 km/h (0 Bft) W 270 3,5 C 0,0 km/h (0 Bft)
03.11.2015 12:30 15,2 C 10,1 C 47 % 1019,1 hPa 0,0 mm 0,0 km/h (0 Bft) W 270 4,0 C 0,0 km/h (0 Bft)
03.11.2015 12:35 15,3 C 10,2 C 47 % 1019,1 hPa 0,0 mm 0,0 km/h (0 Bft) W 270 4,1 C 0,0 km/h (0 Bft)
03.11.2015 12:40 15,2 C 10,1 C 46 % 1019,1 hPa 0,0 mm 0,0 km/h (0 Bft) W 270 3,7 C 0,0 km/h (0 Bft)
03.11.2015 12:45 15,3 C 10,2 C 45 % 1019,1 hPa 0,0 mm 0,0 km/h (0 Bft) W 270 3,4 C 0,0 km/h (0 Bft)
03.11.2015 12:50 15,2 C 10,1 C 45 % 1018,8 hPa 0,0 mm 0,0 km/h (0 Bft) W 270 3,4 C 0,0 km/h (0 Bft)
03.11.2015 12:55 15,6 C 10,4 C 44 % 1018,8 hPa 0,0 mm 0,0 km/h (0 Bft) W 270 3,4 C 0,0 km/h (0 Bft)
03.11.2015 13:00 15,2 C 10,1 C 43 % 1018,8 hPa 0,0 mm 0,0 km/h (0 Bft) W 270 2,7 C 0,0 km/h (0 Bft)
03.11.2015 13:05 15,4 C 10,3 C 44 % 1018,8 hPa 0,0 mm 0,0 km/h (0 Bft) W 270 3,2 C 0,0 km/h (0 Bft)
03.11.2015 13:10 15,9 C 10,6 C 43 % 1019,0 hPa 0,0 mm 0,0 km/h (0 Bft) W 270 3,3 C 0,0 km/h (0 Bft)
03.11.2015 13:15 17,0 C 11,3 C 41 % 1019,0 hPa 0,0 mm 0,0 km/h (0 Bft) W 270 3,7 C 0,0 km/h (0 Bft)
03.11.2015 13:20 17,7 C 11,8 C 40 % 1019,0 hPa 0,0 mm 0,0 km/h (0 Bft) W 270 3,9 C 0,0 km/h (0 Bft)
03.11.2015 13:25 17,6 C 11,7 C 42 % 1019,0 hPa 0,0 mm 0,0 km/h (0 Bft) W 270 4,5 C 0,0 km/h (0 Bft)
03.11.2015 13:30 18,4 C 12,3 C 43 % 1018,1 hPa 0,0 mm 0,0 km/h (0 Bft) W 270 5,6 C 0,0 km/h (0 Bft)
03.11.2015 13:35 19,5 C 13,0 C 42 % 1018,1 hPa 0,0 mm 0,0 km/h (0 Bft) W 270 6,2 C 0,0 km/h (0 Bft)
03.11.2015 13:40 19,4 C 12,9 C 40 % 1018,1 hPa 0,0 mm 0,0 km/h (0 Bft) W 270 5,5 C 0,0 km/h (0 Bft)
03.11.2015 13:45 19,6 C 13,1 C 42 % 1018,1 hPa 0,0 mm 0,0 km/h (0 Bft) W 270 6,3 C 0,0 km/h (0 Bft)
03.11.2015 13:50 19,7 C 13,1 C 41 % 1018,8 hPa 0,0 mm 0,0 km/h (0 Bft) W 270 6,1 C 0,0 km/h (0 Bft)
03.11.2015 13:55 19,5 C 13,0 C 40 % 1018,8 hPa 0,0 mm 0,0 km/h (0 Bft) W 270 5,5 C 0,0 km/h (0 Bft)
03.11.2015 14:00 20,0 C 13,3 C 41 % 1018,8 hPa 0,0 mm 0,0 km/h (0 Bft) W 270 6,3 C 0,0 km/h (0 Bft)
03.11.2015 14:04 20,1 C 13,4 C 42 % 1018,8 hPa 0,0 mm 0,0 km/h (0 Bft) W 270 6,8 C 0,0 km/h (0 Bft)
03.11.2015 14:06 20,1 C 13,4 C 42 % 1018,8 hPa 0,0 mm 0,0 km/h (0 Bft) W 270 6,8 C 0,0 km/h (0 Bft)
03.11.2015 14:10 20,1 C 13,4 C 43 % 1019,1 hPa 0,0 mm 0,0 km/h (0 Bft) W 270 7,1 C 0,0 km/h (0 Bft)
03.11.2015 14:15 19,9 C 13,3 C 43 % 1019,1 hPa 0,0 mm 0,0 km/h (0 Bft) W 270 6,9 C 0,0 km/h (0 Bft)
03.11.2015 14:20 19,6 C 13,1 C 43 % 1019,1 hPa 0,0 mm 0,0 km/h (0 Bft) W 270 6,7 C 0,0 km/h (0 Bft)
03.11.2015 14:25 19,8 C 13,2 C 43 % 1019,1 hPa 0,0 mm 0,0 km/h (0 Bft) W 270 6,9 C 0,0 km/h (0 Bft)
03.11.2015 14:30 19,7 C 13,2 C 43 % 1019,4 hPa 0,0 mm 0,0 km/h (0 Bft) W 270 6,8 C 0,0 km/h (0 Bft)
03.11.2015 14:35 19,8 C 13,3 C 44 % 1019,4 hPa 0,0 mm 0,0 km/h (0 Bft) W 270 7,2 C 0,0 km/h (0 Bft)
03.11.2015 14:40 19,8 C 13,2 C 43 % 1019,4 hPa 0,0 mm 0,0 km/h (0 Bft) W 270 6,9 C 0,0 km/h (0 Bft)
03.11.2015 14:45 19,7 C 13,2 C 43 % 1019,4 hPa 0,0 mm 0,0 km/h (0 Bft) W 270 6,8 C 0,0 km/h (0 Bft)
03.11.2015 14:50 19,6 C 13,1 C 42 % 1019,5 hPa 0,0 mm 0,0 km/h (0 Bft) W 270 6,3 C 0,0 km/h (0 Bft)
03.11.2015 14:55 19,2 C 12,8 C 40 % 1019,5 hPa 0,0 mm 0,0 km/h (0 Bft) W 270 5,3 C 0,0 km/h (0 Bft)
03.11.2015 15:01 18,8 C 12,5 C 40 % 1019,5 hPa 0,0 mm 0,0 km/h (0 Bft) W 270 4,9 C 0,0 km/h (0 Bft)
03.11.2015 15:05 17,8 C 11,9 C 40 % 1019,5 hPa 0,0 mm 0,0 km/h (0 Bft) W 270 4,0 C 0,0 km/h (0 Bft)
03.11.2015 15:10 17,2 C 11,5 C 41 % 1019,5 hPa 0,0 mm 0,0 km/h (0 Bft) W 270 3,8 C 0,0 km/h (0 Bft)
03.11.2015 15:15 16,7 C 11,1 C 40 % 1019,5 hPa 0,0 mm 0,0 km/h (0 Bft) W 270 3,0 C 0,0 km/h (0 Bft)
03.11.2015 15:20 16,5 C 11,0 C 40 % 1019,5 hPa 0,0 mm 0,0 km/h (0 Bft) W 270 2,9 C 0,0 km/h (0 Bft)
03.11.2015 15:25 16,4 C 10,9 C 40 % 1019,5 hPa 0,0 mm 0,0 km/h (0 Bft) W 270 2,8 C 0,0 km/h (0 Bft)
03.11.2015 15:30 16,2 C 10,8 C 41 % 1019,4 hPa 0,0 mm 0,0 km/h (0 Bft) W 270 2,9 C 0,0 km/h (0 Bft)
03.11.2015 15:35 15,5 C 10,6 C 46 % 1019,4 hPa 0,0 mm 0,0 km/h (0 Bft) W 270 3,9 C 0,0 km/h (0 Bft)
03.11.2015 15:40 15,4 C 10,3 C 47 % 1019,4 hPa 0,0 mm 0,0 km/h (0 Bft) W 270 4,1 C 0,0 km/h (0 Bft)
03.11.2015 15:45 14,9 C 10,2 C 48 % 1019,4 hPa 0,0 mm 0,0 km/h (0 Bft) W 270 4,0 C 0,0 km/h (0 Bft)
03.11.2015 15:50 14,3 C 9,7 C 49 % 1019,5 hPa 0,0 mm 0,0 km/h (0 Bft) W 270 3,7 C 0,0 km/h (0 Bft)
03.11.2015 15:55 14,3 C 9,9 C 49 % 1019,5 hPa 0,0 mm 0,0 km/h (0 Bft) W 270 3,7 C 0,0 km/h (0 Bft)
03.11.2015 16:00 14,5 C 9,9 C 48 % 1019,5 hPa 0,0 mm 0,0 km/h (0 Bft) W 270 3,6 C 0,0 km/h (0 Bft)
03.11.2015 16:05 14,6 C 9,7 C 48 % 1019,5 hPa 0,0 mm 0,0 km/h (0 Bft) W 270 3,7 C 0,0 km/h (0 Bft)
03.11.2015 16:10 14,2 C 9,6 C 49 % 1018,9 hPa 0,0 mm 0,0 km/h (0 Bft) W 270 3,6 C 0,0 km/h (0 Bft)
03.11.2015 16:15 13,3 C 14,4 C 51 % 1018,9 hPa 0,0 mm 3,9 km/h (1 Bft) NW 315 3,4 C 2,8 km/h (1 Bft)
03.11.2015 16:20 12,2 C 13,6 C 54 % 1018,9 hPa 0,0 mm 3,4 km/h (1 Bft) N-NO 22 3,2 C 5,7 km/h (1 Bft)
03.11.2015 16:25 12,6 C 13,0 C 56 % 1018,9 hPa 0,0 mm 4,1 km/h (1 Bft) NW 315 4,1 C 7,0 km/h (2 Bft)
03.11.2015 16:30 12,1 C 12,8 C 56 % 1019,6 hPa 0,0 mm 4,1 km/h (1 Bft) O-SO 112 3,6 C 3,1 km/h (1 Bft)
03.11.2015 16:35 12,4 C 12,6 C 56 % 1019,6 hPa 0,0 mm 3,1 km/h (1 Bft) S 180 3,9 C 4,7 km/h (1 Bft)
03.11.2015 16:40 12,2 C 12,6 C 57 % 1019,6 hPa 0,0 mm 2,6 km/h (1 Bft) SO 135 3,9 C 3,9 km/h (1 Bft)
03.11.2015 16:45 11,5 C 12,0 C 58 % 1019,6 hPa 0,0 mm 0,8 km/h (0 Bft) SO 135 3,5 C 0,0 km/h (0 Bft)
03.11.2015 16:50 11,4 C 11,6 C 58 % 1019,4 hPa 0,0 mm 0,3 km/h (0 Bft) SO 135 3,4 C 0,0 km/h (0 Bft)
03.11.2015 16:55 11,8 C 12,2 C 59 % 1019,4 hPa 0,0 mm 0,5 km/h (0 Bft) S-SO 157 4,1 C 3,1 km/h (1 Bft)
03.11.2015 17:00 12,0 C 12,3 C 58 % 1019,4 hPa 0,0 mm 1,6 km/h (1 Bft) S 180 4,0 C 3,4 km/h (1 Bft)
03.11.2015 17:05 11,9 C 12,3 C 59 % 1019,4 hPa 0,0 mm 3,4 km/h (1 Bft) S-SW 202 4,1 C 3,6 km/h (1 Bft)
03.11.2015 17:10 11,1 C 12,2 C 59 % 1019,3 hPa 0,0 mm 2,8 km/h (1 Bft) W-SW 247 3,4 C 0,0 km/h (0 Bft)
03.11.2015 17:15 10,6 C 11,2 C 60 % 1019,3 hPa 0,0 mm 2,1 km/h (1 Bft) S-SW 202 3,2 C 11,4 km/h (2 Bft)
03.11.2015 17:20 11,2 C 11,8 C 61 % 1019,3 hPa 0,0 mm 4,4 km/h (1 Bft) SW 225 4,0 C 12,2 km/h (2 Bft)
03.11.2015 17:25 9,9 C 11,6 C 59 % 1019,3 hPa 0,0 mm 5,2 km/h (1 Bft) W 270 2,3 C 0,0 km/h (0 Bft)
03.11.2015 17:30 9,1 C 10,6 C 61 % 1019,5 hPa 0,0 mm 2,3 km/h (1 Bft) W-SW 247 2,0 C 12,4 km/h (3 Bft)
03.11.2015 17:35 9,9 C 9,8 C 64 % 1019,5 hPa 0,0 mm 0,0 km/h (0 Bft) S 180 3,4 C 2,8 km/h (1 Bft)
03.11.2015 17:40 9,6 C 9,6 C 63 % 1019,5 hPa 0,0 mm 0,3 km/h (0 Bft) S 180 2,9 C 0,0 km/h (0 Bft)
03.11.2015 17:45 10,2 C 10,0 C 64 % 1019,5 hPa 0,0 mm 0,8 km/h (0 Bft) S-SO 157 3,7 C 0,0 km/h (0 Bft)
03.11.2015 17:50 9,3 C 9,5 C 63 % 1019,8 hPa 0,0 mm 0,8 km/h (0 Bft) W-SW 247 2,6 C 0,0 km/h (0 Bft)
03.11.2015 17:55 9,7 C 9,7 C 64 % 1019,8 hPa 0,0 mm 0,5 km/h (0 Bft) W-SW 247 3,2 C 6,5 km/h (2 Bft)
03.11.2015 18:00 10,1 C 10,1 C 63 % 1019,8 hPa 0,0 mm 0,5 km/h (0 Bft) S 180 3,4 C 0,0 km/h (0 Bft)
03.11.2015 18:05 9,8 C 10,0 C 64 % 1019,8 hPa 0,0 mm 0,0 km/h (0 Bft) S-SO 157 3,3 C 0,0 km/h (0 Bft)
03.11.2015 18:10 10,4 C 10,5 C 65 % 1019,9 hPa 0,0 mm 0,8 km/h (0 Bft) S 180 4,1 C 4,9 km/h (1 Bft)
03.11.2015 18:15 11,2 C 11,2 C 64 % 1019,9 hPa 0,0 mm 4,1 km/h (1 Bft) S 180 4,6 C 10,6 km/h (2 Bft)
03.11.2015 18:20 11,4 C 11,4 C 62 % 1019,9 hPa 0,0 mm 6,2 km/h (2 Bft) S 180 4,4 C 11,7 km/h (2 Bft)
03.11.2015 18:25 11,7 C 11,8 C 62 % 1019,9 hPa 0,0 mm 8,0 km/h (2 Bft) SW 225 4,7 C 11,4 km/h (2 Bft)
03.11.2015 18:30 11,9 C 11,9 C 62 % 1020,0 hPa 0,0 mm 8,5 km/h (2 Bft) SW 225 4,9 C 15,5 km/h (3 Bft)
03.11.2015 18:35 10,2 C 12,1 C 60 % 1020,0 hPa 0,0 mm 7,3 km/h (2 Bft) W-SW 247 2,8 C 3,1 km/h (1 Bft)
03.11.2015 18:40 8,6 C 11,3 C 62 % 1020,0 hPa 0,0 mm 4,7 km/h (1 Bft) S 180 1,7 C 0,0 km/h (0 Bft)
03.11.2015 18:45 7,9 C 9,7 C 64 % 1020,0 hPa 0,0 mm 0,5 km/h (0 Bft) W-SW 247 1,5 C 0,0 km/h (0 Bft)
03.11.2015 18:50 8,0 C 8,7 C 66 % 1020,1 hPa 0,0 mm 0,0 km/h (0 Bft) SW 225 2,0 C 0,0 km/h (0 Bft)
03.11.2015 18:55 7,8 C 7,9 C 68 % 1020,1 hPa 0,0 mm 0,0 km/h (0 Bft) S 180 2,3 C 0,0 km/h (0 Bft)
03.11.2015 19:00 8,0 C 7,9 C 70 % 1020,1 hPa 0,0 mm 0,0 km/h (0 Bft) S-SO 157 2,9 C 0,0 km/h (0 Bft)
03.11.2015 19:05 7,6 C 7,6 C 69 % 1020,1 hPa 0,0 mm 0,0 km/h (0 Bft) S-SO 157 2,3 C 0,0 km/h (0 Bft)
03.11.2015 19:10 8,3 C 8,3 C 68 % 1019,9 hPa 0,0 mm 0,0 km/h (0 Bft) S-SO 157 2,7 C 3,1 km/h (1 Bft)
03.11.2015 19:15 8,0 C 8,0 C 70 % 1019,9 hPa 0,0 mm 0,0 km/h (0 Bft) S-SO 157 2,9 C 0,0 km/h (0 Bft)
03.11.2015 19:20 8,4 C 8,7 C 70 % 1019,9 hPa 0,0 mm 0,3 km/h (0 Bft) S 180 3,3 C 0,0 km/h (0 Bft)
03.11.2015 19:25 8,6 C 8,5 C 69 % 1019,9 hPa 0,0 mm 0,0 km/h (0 Bft) O-SO 112 3,2 C 0,0 km/h (0 Bft)
03.11.2015 19:30 7,3 C 7,9 C 69 % 1020,0 hPa 0,0 mm 0,0 km/h (0 Bft) O-NO 67 2,0 C 0,0 km/h (0 Bft)
03.11.2015 19:35 6,8 C 7,1 C 70 % 1020,0 hPa 0,0 mm 0,0 km/h (0 Bft) O-SO 112 1,7 C 0,0 km/h (0 Bft)
03.11.2015 19:40 6,8 C 6,8 C 70 % 1020,0 hPa 0,0 mm 0,0 km/h (0 Bft) O-SO 112 1,7 C 0,0 km/h (0 Bft)
03.11.2015 19:45 6,7 C 6,6 C 71 % 1020,0 hPa 0,0 mm 0,3 km/h (0 Bft) S 180 1,8 C 0,0 km/h (0 Bft)
03.11.2015 19:50 6,3 C 6,4 C 71 % 1019,7 hPa 0,0 mm 0,3 km/h (0 Bft) S 180 1,4 C 0,0 km/h (0 Bft)
03.11.2015 19:55 6,4 C 6,3 C 72 % 1019,7 hPa 0,0 mm 0,0 km/h (0 Bft) S 180 1,7 C 0,0 km/h (0 Bft)
03.11.2015 20:00 6,7 C 6,5 C 74 % 1019,7 hPa 0,0 mm 0,0 km/h (0 Bft) O-SO 112 2,4 C 0,0 km/h (0 Bft)
03.11.2015 20:05 7,4 C 7,1 C 74 % 1019,7 hPa 0,0 mm 0,3 km/h (0 Bft) W-NW 292 3,1 C 4,4 km/h (1 Bft)
03.11.2015 20:07 7,4 C 7,1 C 74 % 1019,7 hPa 0,0 mm 0,3 km/h (0 Bft) W-NW 292 3,1 C 4,4 km/h (1 Bft)
03.11.2015 20:10 5,9 C 6,4 C 74 % 1019,6 hPa 0,0 mm 0,8 km/h (0 Bft) NO 45 1,6 C 0,0 km/h (0 Bft)
03.11.2015 20:15 6,2 C 6,0 C 75 % 1019,6 hPa 0,0 mm 1,0 km/h (0 Bft) O-SO 112 2,1 C 0,0 km/h (0 Bft)
03.11.2015 20:20 6,9 C 6,6 C 73 % 1019,6 hPa 0,0 mm 0,3 km/h (0 Bft) O-NO 67 2,4 C 0,0 km/h (0 Bft)
03.11.2015 20:25 6,0 C 6,2 C 75 % 1019,6 hPa 0,0 mm 1,0 km/h (0 Bft) W-NW 292 1,9 C 3,6 km/h (1 Bft)
03.11.2015 20:30 5,5 C 5,8 C 75 % 1019,6 hPa 0,0 mm 1,3 km/h (1 Bft) W 270 1,4 C 0,0 km/h (0 Bft)
03.11.2015 20:35 6,2 C 6,0 C 77 % 1019,6 hPa 0,0 mm 1,0 km/h (0 Bft) S-SO 157 2,5 C 3,4 km/h (1 Bft)
03.11.2015 20:40 6,6 C 6,4 C 73 % 1019,6 hPa 0,0 mm 0,8 km/h (0 Bft) S-SO 157 2,1 C 0,0 km/h (0 Bft)
03.11.2015 20:45 6,7 C 6,6 C 73 % 1019,6 hPa 0,0 mm 1,0 km/h (0 Bft) S-SO 157 2,2 C 4,4 km/h (1 Bft)
03.11.2015 20:50 6,8 C 7,0 C 74 % 1019,6 hPa 0,0 mm 1,0 km/h (0 Bft) S 180 2,5 C 3,6 km/h (1 Bft)
03.11.2015 20:55 6,5 C 7,2 C 75 % 1019,6 hPa 0,0 mm 1,3 km/h (1 Bft) O-SO 112 2,4 C 0,0 km/h (0 Bft)
03.11.2015 21:00 6,6 C 6,9 C 73 % 1019,6 hPa 0,0 mm 1,6 km/h (1 Bft) S 180 2,1 C 5,2 km/h (1 Bft)
03.11.2015 21:05 6,0 C 6,7 C 75 % 1019,6 hPa 0,0 mm 0,8 km/h (0 Bft) O 90 1,9 C 0,0 km/h (0 Bft)
03.11.2015 21:10 5,6 C 6,5 C 76 % 1019,6 hPa 0,0 mm 1,0 km/h (0 Bft) W 270 1,7 C 0,0 km/h (0 Bft)
03.11.2015 21:15 5,4 C 5,8 C 78 % 1019,6 hPa 0,0 mm 1,0 km/h (0 Bft) O-NO 67 1,9 C 0,0 km/h (0 Bft)
03.11.2015 21:20 5,2 C 5,7 C 77 % 1019,6 hPa 0,0 mm 0,5 km/h (0 Bft) N-NW 337 1,5 C 0,0 km/h (0 Bft)
03.11.2015 21:25 5,8 C 5,7 C 79 % 1019,6 hPa 0,0 mm 0,0 km/h (0 Bft) W-SW 247 2,4 C 0,0 km/h (0 Bft)
03.11.2015 21:30 5,9 C 5,8 C 79 % 1019,8 hPa 0,0 mm 1,0 km/h (0 Bft) SW 225 2,5 C 4,9 km/h (1 Bft)
03.11.2015 21:35 5,8 C 5,8 C 76 % 1019,8 hPa 0,0 mm 2,1 km/h (1 Bft) S-SO 157 1,9 C 0,0 km/h (0 Bft)
03.11.2015 21:40 5,8 C 6,0 C 78 % 1019,8 hPa 0,0 mm 1,6 km/h (1 Bft) SO 135 2,3 C 0,0 km/h (0 Bft)
03.11.2015 21:45 5,6 C 5,7 C 78 % 1019,8 hPa 0,0 mm 0,3 km/h (0 Bft) O-NO 67 2,1 C 0,0 km/h (0 Bft)
03.11.2015 21:50 6,1 C 6,0 C 75 % 1019,4 hPa 0,0 mm 0,5 km/h (0 Bft) O-SO 112 2,0 C 0,0 km/h (0 Bft)
03.11.2015 21:55 7,0 C 7,0 C 75 % 1019,4 hPa 0,0 mm 2,6 km/h (1 Bft) W-NW 292 2,9 C 8,0 km/h (2 Bft)
03.11.2015 22:00 6,4 C 6,8 C 76 % 1019,4 hPa 0,0 mm 3,1 km/h (1 Bft) SO 135 2,5 C 0,0 km/h (0 Bft)
03.11.2015 22:05 6,9 C 7,3 C 75 % 1019,4 hPa 0,0 mm 3,4 km/h (1 Bft) SO 135 2,8 C 4,9 km/h (1 Bft)
03.11.2015 22:10 7,8 C 7,9 C 74 % 1019,8 hPa 0,0 mm 3,6 km/h (1 Bft) S-SO 157 3,5 C 4,7 km/h (1 Bft)
03.11.2015 22:15 8,0 C 8,6 C 72 % 1019,8 hPa 0,0 mm 4,9 km/h (1 Bft) SO 135 3,3 C 3,9 km/h (1 Bft)
03.11.2015 22:20 7,8 C 8,6 C 71 % 1019,8 hPa 0,0 mm 4,7 km/h (1 Bft) O 90 2,9 C 3,9 km/h (1 Bft)
03.11.2015 22:25 6,7 C 8,1 C 71 % 1019,8 hPa 0,0 mm 1,8 km/h (1 Bft) N-NO 22 1,8 C 0,0 km/h (0 Bft)
03.11.2015 22:30 6,5 C 7,6 C 72 % 1020,1 hPa 0,0 mm 0,5 km/h (0 Bft) O-NO 67 1,8 C 0,0 km/h (0 Bft)
03.11.2015 22:35 6,6 C 7,4 C 72 % 1020,1 hPa 0,0 mm 0,0 km/h (0 Bft) SO 135 1,9 C 0,0 km/h (0 Bft)
03.11.2015 22:40 6,6 C 7,5 C 73 % 1020,1 hPa 0,0 mm 0,3 km/h (0 Bft) SO 135 2,1 C 0,0 km/h (0 Bft)
03.11.2015 22:45 6,6 C 7,6 C 73 % 1020,1 hPa 0,0 mm 0,3 km/h (0 Bft) SO 135 2,1 C 0,0 km/h (0 Bft)
03.11.2015 22:50 6,4 C 7,4 C 74 % 1020,0 hPa 0,0 mm 0,0 km/h (0 Bft) O 90 2,1 C 0,0 km/h (0 Bft)
03.11.2015 22:55 6,5 C 7,3 C 74 % 1020,0 hPa 0,0 mm 0,0 km/h (0 Bft) O 90 2,2 C 0,0 km/h (0 Bft)
03.11.2015 23:00 6,6 C 7,4 C 73 % 1020,0 hPa 0,0 mm 0,0 km/h (0 Bft) O 90 2,1 C 0,0 km/h (0 Bft)
03.11.2015 23:05 6,7 C 7,4 C 75 % 1020,0 hPa 0,0 mm 0,0 km/h (0 Bft) N-NO 22 2,6 C 0,0 km/h (0 Bft)
03.11.2015 23:10 6,7 C 7,3 C 74 % 1019,8 hPa 0,0 mm 0,0 km/h (0 Bft) O-SO 112 2,4 C 0,0 km/h (0 Bft)
03.11.2015 23:15 6,7 C 7,3 C 74 % 1019,8 hPa 0,0 mm 0,0 km/h (0 Bft) SO 135 2,4 C 0,0 km/h (0 Bft)
03.11.2015 23:20 6,8 C 7,4 C 74 % 1019,8 hPa 0,0 mm 0,0 km/h (0 Bft) O-SO 112 2,5 C 0,0 km/h (0 Bft)
03.11.2015 23:25 7,1 C 7,6 C 74 % 1019,8 hPa 0,0 mm 0,3 km/h (0 Bft) SO 135 2,8 C 2,6 km/h (1 Bft)
03.11.2015 23:30 7,2 C 7,5 C 74 % 1020,3 hPa 0,0 mm 0,5 km/h (0 Bft) W 270 2,9 C 7,0 km/h (2 Bft)
03.11.2015 23:35 7,3 C 7,4 C 77 % 1020,3 hPa 0,0 mm 1,6 km/h (1 Bft) SO 135 3,5 C 0,0 km/h (0 Bft)
03.11.2015 23:40 7,3 C 7,5 C 75 % 1020,3 hPa 0,0 mm 2,6 km/h (1 Bft) S 180 3,2 C 4,7 km/h (1 Bft)
03.11.2015 23:45 8,2 C 8,2 C 76 % 1020,3 hPa 0,0 mm 2,1 km/h (1 Bft) NW 315 4,2 C 0,0 km/h (0 Bft)
03.11.2015 23:50 7,8 C 8,1 C 76 % 1020,6 hPa 0,0 mm 1,3 km/h (1 Bft) NO 45 3,8 C 0,0 km/h (0 Bft)
03.11.2015 23:55 7,6 C 7,6 C 76 % 1020,6 hPa 0,0 mm 1,0 km/h (0 Bft) S-SW 202 3,6 C 3,4 km/h (1 Bft)
_ Min-Zeit 03:00 03:00 15:25 13:45 - 23:20 - - 06:15 23:50
Minimum _ -0,9 C -1,0 C 40 % 1018,1 hPa - 0,0 km/h (0 Bft) - - -4,5 C 0,0 km/h (0 Bft)
_ Max-Zeit 14:10 16:15 00:15 00:25 23:55 18:30 - - 14:35 18:30
Maximum _ 20,1 C 14,4 C 83 % 1023,1 hPa 0,0 mm 8,5 km/h
SW (2 Bft)
- - 7,2 C 15,5 km/h
SW (3 Bft)
Durchschnitt _ 7,0 C 5,8 C 65 % 1020,4 hPa #0,0 mm 0,6 km/h (0 Bft) S - 0,4 C 1,0 km/h (0 Bft)